Waarnemingen

Advertentie
Mijn weer
Cannes, Frankrijk (7684): temperatuur & dauwpunt: 15.02.2019 15:00:00 - 21.02.2019 15:00:00 (CET)Cannes, Frankrijk (7684): temperatuur 5cm: 15.02.2019 15:00:00 - 21.02.2019 15:00:00 (CET)Cannes, Frankrijk (7684): windsnelheid & windstoten: 15.02.2019 15:00:00 - 21.02.2019 15:00:00 (CET)Cannes, Frankrijk (7684): windrichting: 15.02.2019 15:00:00 - 21.02.2019 15:00:00 (CET)Cannes, Frankrijk (7684): luchtdruk: 15.02.2019 15:00:00 - 21.02.2019 15:00:00 (CET)Cannes, Frankrijk (7684): zicht: 15.02.2019 15:00:00 - 21.02.2019 15:00:00 (CET)Cannes, Frankrijk (7684): neerslag: 15.02.2019 15:00:00 - 21.02.2019 15:00:00 (CET)
Datum & Tijd tt [°C] td [°C] tt 5cm [°C] ff [km/u] ff [kn] fx [km/u] fx [kn] dd ppp [hPa] vv [km] rr [mm]
21.02.2019 15:00:00 14,9 9,3 20,4 11 6 18 10 Z 1027,8 20 0,0
21.02.2019 14:00:00 14,6 8,1 16,2 10 6 21 11 Z 1028,2 18 0,0
21.02.2019 13:00:00 13,9 8,3 20,6 9 5 17 9 ZZO 1028,8 19 0,0
21.02.2019 12:00:00 13,7 8,7 20,7 8 5 13 7 ZZO 1029,3 20 0,0
21.02.2019 11:00:00 13,5 7,3 16,9 4 2 9 5 ZW 1029,3 20 0,0
21.02.2019 10:00:00 10,0 4,8 11,0 6 4 17 9 N 1029,2 20 0,0
21.02.2019 09:00:00 6,1 3,4 2,7 9 5 14 7 N 1029,1 16 0,0
21.02.2019 08:00:00 3,3 2,0 1,5 8 5 14 7 N 1028,7 16 0,0
21.02.2019 07:00:00 3,0 1,7 1,6 8 4 14 8 N 1028,0 18 0,0
21.02.2019 06:00:00 3,1 1,9 1,6 8 4 13 7 N 1027,8 19 0,2
21.02.2019 05:00:00 3,1 1,9 1,7 8 4 13 7 N 1027,7 16 0,0
21.02.2019 04:00:00 3,5 2,2 2,0 8 4 14 7 N 1027,4 17 0,0
21.02.2019 03:00:00 3,8 2,6 2,1 8 4 13 7 N 1027,5 17 0,0
21.02.2019 02:00:00 4,0 2,8 2,4 8 4 12 6 N 1027,5 16 0,0
21.02.2019 01:00:00 4,2 2,9 2,7 7 4 12 6 N 1027,4 15 0,0
21.02.2019 00:00:00 4,6 3,3 3,0 7 4 13 7 N 1027,1 14 0,0
20.02.2019 23:00:00 5,0 3,5 3,4 7 4 12 7 N 1027,0 14 0,0
20.02.2019 22:00:00 5,5 4,0 3,6 6 3 11 6 N 1026,8 13 0,0
20.02.2019 21:00:00 6,1 4,3 4,1 5 3 11 6 N 1026,4 13 0,0
20.02.2019 20:00:00 7,5 4,8 4,1 7 4 10 5 N 1026,0 13 0,0
20.02.2019 19:00:00 9,0 5,4 3,3 4 2 11 6 N 1025,7 20 0,0
20.02.2019 18:00:00 10,5 5,3 8,2 7 4 16 9 Z 1025,1 60 0,0
20.02.2019 17:00:00 12,7 6,1 14,7 11 6 18 10 Z 1024,9 45 0,0
20.02.2019 16:00:00 13,2 5,6 18,2 14 7 21 11 Z 1024,8 42 0,0
20.02.2019 15:00:00 13,7 5,3 19,7 13 7 21 12 Z 1024,9 41 0,0
20.02.2019 14:00:00 13,8 6,4 15,4 14 7 22 12 Z 1025,2 45 0,0
20.02.2019 13:00:00 14,1 6,9 20,8 12 7 21 11 Z 1025,5 50 0,0
20.02.2019 12:00:00 14,1 5,2 21,8 8 4 16 9 Z 1025,9 19 0,0
20.02.2019 11:00:00 13,7 5,3 21,1 6 3 9 5 ZZW 1025,7 60 0,0
20.02.2019 10:00:00 12,1 4,8 15,6 0 0 10 5 N 1025,4 41 0,0
20.02.2019 09:00:00 9,1 5,1 6,0 4 2 11 6 N 1025,0 20 0,0
20.02.2019 08:00:00 6,9 4,6 5,8 8 4 13 7 N 1024,6 19 0,0
20.02.2019 07:00:00 7,5 4,8 6,2 4 2 7 4 N 1023,8 23 0,0
20.02.2019 06:00:00 7,6 4,7 6,5 2 1 6 3 N 1023,9 25 0,0
20.02.2019 05:00:00 7,4 4,5 6,5 4 2 8 4 NNO 1023,8 19 0,0
20.02.2019 04:00:00 7,1 4,4 6,4 3 2 9 5 N 1023,8 25 0,0
20.02.2019 03:00:00 6,9 4,2 6,0 3 2 9 5 N 1024,1 23 0,0
20.02.2019 02:00:00 6,4 4,1 5,3 2 1 10 5 NNO 1024,2 20 0,0
20.02.2019 01:00:00 5,6 3,8 3,9 8 4 13 7 N 1024,1 19 0,0
20.02.2019 00:00:00 4,6 3,3 2,6 8 4 12 6 N 1024,0 15 0,0
19.02.2019 23:00:00 4,5 3,0 2,9 8 4 11 6 N 1024,0 14 0,0
19.02.2019 22:00:00 5,2 3,5 3,1 6 4 9 5 N 1024,0 13 0,0
19.02.2019 21:00:00 6,1 3,9 3,3 4 2 10 5 N 1023,6 16 0,0
19.02.2019 20:00:00 6,8 4,1 4,7 5 3 13 7 N 1023,5 16 0,0
19.02.2019 19:00:00 8,7 4,7 3,3 5 3 8 4 N 1023,0 19 0,0
19.02.2019 18:00:00 11,1 4,8 7,8 4 2 11 6 ZZO 1022,5 60 0,0
19.02.2019 17:00:00 12,0 4,7 13,8 8 5 16 9 Z 1022,6 56 0,0
19.02.2019 16:00:00 13,0 4,2 18,1 9 5 16 8 ZZO 1022,7 47 0,0
19.02.2019 15:00:00 12,9 4,8 18,8 13 7 20 11 ZZW 1022,9 60 0,0
19.02.2019 14:00:00 13,3 4,7 14,4 10 6 20 11 Z 1023,3 51 0,0
19.02.2019 13:00:00 12,8 4,0 19,7 13 7 21 11 Z 1024,0 49 0,0
19.02.2019 12:00:00 12,7 3,6 19,6 10 5 16 9 ZZO 1024,6 20 0,0
19.02.2019 11:00:00 11,6 3,4 12,4 2 1 13 7 ZO 1024,6 60 0,0
19.02.2019 10:00:00 10,1 3,6 9,1 6 3 17 9 N 1024,6 53 0,0
19.02.2019 09:00:00 8,7 3,7 7,3 8 4 18 10 N 1024,5 42 0,0
19.02.2019 08:00:00 7,6 3,4 7,0 11 6 22 12 N 1023,8 41 0,0
19.02.2019 07:00:00 7,8 3,8 6,9 6 3 14 8 N 1023,4 40 0,0
19.02.2019 06:00:00 7,6 4,0 6,7 8 4 13 7 N 1023,5 41 0,0
19.02.2019 05:00:00 7,4 4,5 6,7 2 1 12 6 N 1023,4 36 0,0
19.02.2019 04:00:00 7,6 4,7 6,7 8 4 13 7 NNO 1023,3 30 0,0
19.02.2019 03:00:00 7,2 4,8 6,5 5 3 15 8 N 1023,8 27 0,0
19.02.2019 02:00:00 7,2 5,0 5,9 8 5 12 6 N 1024,2 28 0,0
19.02.2019 01:00:00 6,2 5,3 3,2 3 2 6 4 N 1024,4 20 0,0
19.02.2019 00:00:00 5,5 4,6 2,0 2 1 8 4 NNO 1024,4 11 0,0
18.02.2019 23:00:00 5,6 4,6 2,7 5 3 8 4 N 1024,6 12 0,0
18.02.2019 22:00:00 6,5 5,0 3,6 4 2 8 4 N 1024,7 14 0,0
18.02.2019 21:00:00 7,4 5,9 4,8 3 2 9 5 N 1024,6 15 0,0
18.02.2019 20:00:00 7,2 5,3 4,1 6 3 8 4 N 1024,5 11 0,0
18.02.2019 19:00:00 8,6 5,9 3,0 4 2 10 6 N 1024,3 36 0,0
18.02.2019 18:00:00 10,5 6,1 8,0 6 3 21 11 Z 1023,7 60 0,0
18.02.2019 17:00:00 12,5 6,7 13,8 14 7 22 12 Z 1023,8 51 0,0
18.02.2019 16:00:00 13,2 7,2 17,8 14 8 25 13 Z 1024,1 49 0,0
18.02.2019 15:00:00 13,6 7,4 18,7 15 8 24 13 Z 1024,3 43 0,0
18.02.2019 14:00:00 13,4 7,4 15,1 16 9 25 13 Z 1025,0 20 0,0
18.02.2019 13:00:00 13,4 7,8 19,8 12 7 19 10 Z 1025,7 20 0,0
18.02.2019 12:00:00 13,0 7,9 20,1 10 6 18 10 Z 1026,7 20 0,0
18.02.2019 11:00:00 13,2 7,4 17,6 4 2 10 6 ZZW 1026,6 60 0,0
18.02.2019 10:00:00 9,3 4,5 9,0 5 3 15 8 N 1026,7 19 0,0
18.02.2019 09:00:00 5,3 2,3 1,4 9 5 16 9 N 1026,9 40 0,0
18.02.2019 08:00:00 2,6 1,1 0,5 9 5 16 8 N 1026,9 18 0,0
18.02.2019 07:00:00 2,3 1,1 0,6 8 4 14 7 N 1026,5 24 0,0
18.02.2019 06:00:00 2,6 1,4 0,9 8 4 14 8 NNO 1026,7 22 0,0
18.02.2019 05:00:00 2,9 2,0 1,0 8 4 12 7 NNO 1026,5 18 0,0
18.02.2019 04:00:00 3,2 2,2 1,5 7 4 14 7 NNO 1026,4 17 0,0
18.02.2019 03:00:00 3,7 3,0 1,6 8 4 12 7 N 1027,0 15 0,0
18.02.2019 02:00:00 3,8 3,1 1,9 6 4 13 7 N 1027,5 14 0,0
18.02.2019 01:00:00 4,6 3,9 2,3 8 4 13 7 NNO 1027,9 13 0,0
18.02.2019 00:00:00 4,9 4,2 2,5 5 3 11 6 N 1028,0 12 0,2
17.02.2019 23:00:00 5,7 5,0 3,1 8 4 14 7 NNO 1028,1 11 0,0
17.02.2019 22:00:00 5,9 5,2 3,3 5 3 9 5 N 1028,0 8 0,0
17.02.2019 21:00:00 6,8 5,9 3,4 5 3 9 5 N 1027,8 7 0,0
17.02.2019 20:00:00 8,1 7,0 4,2 4 2 11 6 N 1027,7 10 0,0
17.02.2019 19:00:00 9,4 7,3 6,0 6 4 9 5 N 1027,4 25 0,0
17.02.2019 18:00:00 11,7 8,2 7,5 2 1 19 10 ZO 1027,2 57 0,0
17.02.2019 17:00:00 13,2 9,1 14,9 14 7 21 11 Z 1027,4 60 0,0
17.02.2019 16:00:00 14,2 9,6 19,3 14 8 22 12 Z 1027,6 39 0,0
17.02.2019 15:00:00 14,3 9,7 19,5 13 7 23 12 Z 1027,8 27 0,0
17.02.2019 14:00:00 14,3 10,3 15,6 12 6 21 12 Z 1028,5 18 0,0
17.02.2019 13:00:00 13,9 9,5 20,6 10 5 17 9 Z 1029,1 16 0,0
17.02.2019 12:00:00 13,6 7,6 20,7 8 4 13 7 Z 1029,8 17 0,0
17.02.2019 11:00:00 13,5 5,9 18,6 6 3 9 5 Z 1029,9 16 0,0
17.02.2019 10:00:00 10,0 2,6 11,4 4 2 14 7 NNO 1029,9 45 0,0
17.02.2019 09:00:00 5,8 1,9 1,8 6 4 15 8 N 1030,1 31 0,0
17.02.2019 08:00:00 2,6 0,5 0,8 9 5 16 8 N 1030,0 28 0,0
17.02.2019 07:00:00 2,4 0,3 0,5 8 4 13 7 NNO 1029,6 28 0,0
17.02.2019 06:00:00 2,8 0,5 1,2 9 5 16 8 N 1029,3 29 0,0
17.02.2019 05:00:00 3,0 0,6 0,9 7 4 13 7 NNO 1029,1 28 0,0
17.02.2019 04:00:00 3,0 0,7 1,4 8 5 13 7 N 1029,3 27 0,0
17.02.2019 03:00:00 3,4 1,0 1,8 8 4 17 9 N 1029,8 24 0,0
17.02.2019 02:00:00 3,6 1,1 1,6 8 5 13 7 NNO 1029,9 23 0,0
17.02.2019 01:00:00 4,2 1,6 2,0 8 4 13 7 NNO 1029,8 19 0,0
17.02.2019 00:00:00 4,8 1,8 2,7 7 4 11 6 NNO 1029,8 20 0,0
16.02.2019 23:00:00 5,1 2,1 3,0 8 4 13 7 N 1030,0 19 0,0
16.02.2019 22:00:00 5,7 2,5 3,3 7 4 11 6 N 1030,2 16 0,0
16.02.2019 21:00:00 6,4 3,4 3,8 6 3 12 6 NNO 1029,9 14 0,0
16.02.2019 20:00:00 7,9 4,3 4,8 6 4 10 5 N 1029,8 12 0,0
16.02.2019 19:00:00 9,5 4,5 5,1 4 2 8 4 N 1029,8 17 0,0
16.02.2019 18:00:00 12,0 5,8 6,5 3 1 11 6 W 1029,5 11 0,0
16.02.2019 17:00:00 14,8 5,3 16,3 6 4 14 7 ZZO 1029,7 12 0,0
16.02.2019 16:00:00 15,6 5,5 21,0 8 5 16 9 Z 1030,1 12 0,0
16.02.2019 15:00:00 16,6 3,3 22,5 9 5 16 9 Z 1030,4 19 0,0
16.02.2019 14:00:00 17,0 1,4 17,9 9 5 17 9 Z 1030,8 41 0,0
16.02.2019 13:00:00 17,8 1,3 24,6 10 5 16 9 ZZW 1031,1 20 0,0
16.02.2019 12:00:00 18,1 1,6 25,3 6 3 9 5 ZZO 1031,3 20 0,0
16.02.2019 11:00:00 16,1 3,5 18,5 3 1 14 8 NO 1031,3 35 0,0
16.02.2019 10:00:00 11,4 3,2 11,4 7 4 18 10 N 1031,2 40 0,0
16.02.2019 09:00:00 7,1 1,8 2,9 10 6 17 9 N 1031,3 31 0,0
16.02.2019 08:00:00 4,1 0,8 2,1 10 5 17 9 NNO 1030,8 32 0,0
16.02.2019 07:00:00 3,8 0,8 2,0 8 5 17 9 N 1030,5 40 0,0
16.02.2019 06:00:00 4,1 1,1 1,7 9 5 18 10 N 1030,4 37 0,0
16.02.2019 05:00:00 4,2 1,7 2,0 10 5 19 10 N 1030,3 34 0,0
16.02.2019 04:00:00 4,2 2,2 2,0 10 5 16 9 NNO 1030,3 31 0,0
16.02.2019 03:00:00 4,4 2,9 2,0 9 5 14 8 NNO 1030,5 24 0,0
16.02.2019 02:00:00 5,0 3,5 2,8 8 4 15 8 NNO 1030,7 20 0,0
16.02.2019 01:00:00 5,3 3,8 2,1 7 4 12 7 NNO 1030,9 18 0,0
16.02.2019 00:00:00 5,7 4,5 3,6 6 4 14 8 N 1030,6 13 0,0
15.02.2019 23:00:00 5,9 4,9 3,7 5 3 15 8 N 1030,4 9 0,0
15.02.2019 22:00:00 6,7 5,6 4,6 9 5 15 8 NNO 1030,5 9 0,0
15.02.2019 21:00:00 7,0 5,9 4,7 5 3 11 6 N 1029,7 8 0,0
15.02.2019 20:00:00 8,1 6,4 5,5 4 2 10 6 N 1029,2 8 0,0
15.02.2019 19:00:00 9,8 7,4 3,8 6 3 8 5 N 1029,1 17 0,0
15.02.2019 18:00:00 12,2 9,0 7,5 3 2 11 6 ZZO 1028,4 31 0,0
15.02.2019 17:00:00 13,8 9,8 16,8 7 4 16 8 Z 1028,4 43 0,0
15.02.2019 16:00:00 14,8 9,2 20,2 5 3 15 8 Z 1028,6 19 0,0
15.02.2019 15:00:00 15,1 8,3 21,0 10 5 17 9 Z 1029,2 20 0,0

tt = temperatuur
td = dauwpunt
tt 5cm = temperatuur 5cm
ff = windsnelheid
fx = windstoten
dd = windrichting
ppp = luchtdruk
vv = zicht
rr = neerslag

Weerstations in de omgeving